Location: ????? ???????
(25.7275°N, 32.5929°E)
Time: 11:00:01
(UTC+00:00)

SeaSat 1 - Pass Details

Date: 02 March 2021
Orbit: 744 x 747 km, 108.0° (Epoch: 15 April)

Event Time Altitude Azimuth Distance (km) Brightness Sun altitude
Rises 17:03:41 0° 8° (N) 3,189 5.6 -16.9°
Reaches altitude 10° 17:06:11 10° 358° (N) 2,263 5.0 -17.5°
Maximum altitude 17:10:25 29° 299° (WNW) 1,334 4.4 -18.5°
Drops below altitude 10° 17:14:38 10° 239° (WSW) 2,257 5.8 -19.4°
Sets 17:17:07 0° 228° (SW) 3,178 6.4 -20.0°
